TimeEET,TemperatureF,Dew PointF,Humidity,Sea Level PressureIn,VisibilityMPH,Wind Direction,Wind SpeedMPH,Gust SpeedMPH,PrecipitationIn,Events,Conditions,WindDirDegrees,DateUTC
1:50 AM,55.4,48.2,77,29.98,6.2,WNW,4.6,-,N/A,,Partly Cloudy,300,2012-11-16 23:50:00
4:50 AM,59.0,48.2,67,29.95,6.2,NNW,6.9,-,N/A,,Partly Cloudy,340,2012-11-17 02:50:00
5:20 AM,59.0,48.2,67,29.95,6.2,West,6.9,-,N/A,,Partly Cloudy,280,2012-11-17 03:20:00
5:50 AM,62.6,46.4,55,29.95,6.2,North,9.2,-,N/A,,Partly Cloudy,350,2012-11-17 03:50:00
6:20 AM,60.8,46.4,59,29.95,6.2,North,9.2,-,N/A,,Partly Cloudy,350,2012-11-17 04:20:00
6:50 AM,59.0,46.4,63,29.95,-9999.0,NNW,5.8,-,N/A,,Clear,340,2012-11-17 04:50:00
7:20 AM,59.0,46.4,63,29.95,-9999.0,WNW,6.9,-,N/A,,Clear,300,2012-11-17 05:20:00
7:50 AM,60.8,46.4,59,29.95,-9999.0,North,9.2,-,N/A,,Clear,350,2012-11-17 05:50:00
8:20 AM,60.8,48.2,63,29.95,6.2,North,8.1,-,N/A,,Partly Cloudy,350,2012-11-17 06:20:00
8:50 AM,62.6,48.2,59,29.95,6.2,NNW,10.4,-,N/A,,Partly Cloudy,340,2012-11-17 06:50:00
9:20 AM,66.2,50.0,56,29.95,6.2,NNW,9.2,-,N/A,,Partly Cloudy,340,2012-11-17 07:20:00
9:50 AM,69.8,48.2,46,29.95,6.2,North,6.9,-,N/A,,Partly Cloudy,360,2012-11-17 07:50:00
10:20 AM,71.6,46.4,41,29.95,6.2,North,5.8,-,N/A,,Partly Cloudy,360,2012-11-17 08:20:00
10:50 AM,73.4,46.4,38,29.95,6.2,North,4.6,-,N/A,,Partly Cloudy,350,2012-11-17 08:50:00
11:20 AM,73.4,46.4,38,29.95,6.2,Calm,Calm,-,N/A,,Partly Cloudy,0,2012-11-17 09:20:00
11:50 AM,73.4,46.4,38,29.95,6.2,NE,6.9,-,N/A,,Partly Cloudy,40,2012-11-17 09:50:00
12:20 PM,75.2,46.4,36,29.92,6.2,SE,4.6,-,N/A,,Partly Cloudy,140,2012-11-17 10:20:00
12:50 PM,73.4,46.4,38,29.92,6.2,SE,5.8,-,N/A,,Partly Cloudy,140,2012-11-17 10:50:00
1:20 PM,73.4,48.2,41,29.92,6.2,South,8.1,-,N/A,,Partly Cloudy,170,2012-11-17 11:20:00
1:50 PM,73.4,48.2,41,29.92,6.2,South,5.8,-,N/A,,Partly Cloudy,180,2012-11-17 11:50:00
2:20 PM,73.4,46.4,38,29.92,6.2,Calm,Calm,-,N/A,,Partly Cloudy,0,2012-11-17 12:20:00
2:50 PM,75.2,46.4,36,29.92,6.2,ENE,8.1,-,N/A,,Partly Cloudy,70,2012-11-17 12:50:00
3:20 PM,73.4,46.4,38,29.92,6.2,ENE,4.6,-,N/A,,Partly Cloudy,60,2012-11-17 13:20:00
3:50 PM,73.4,46.4,38,29.92,6.2,East,6.9,-,N/A,,Partly Cloudy,80,2012-11-17 13:50:00
4:20 PM,71.6,48.2,43,29.92,6.2,ENE,11.5,-,N/A,,Partly Cloudy,70,2012-11-17 14:20:00
4:50 PM,69.8,48.2,46,29.92,6.2,NE,6.9,-,N/A,,Partly Cloudy,50,2012-11-17 14:50:00
5:20 PM,68.0,48.2,49,29.92,6.2,NE,6.9,-,N/A,,Partly Cloudy,50,2012-11-17 15:20:00
5:50 PM,64.4,48.2,56,29.92,6.2,Calm,Calm,-,N/A,,Partly Cloudy,0,2012-11-17 15:50:00
6:20 PM,64.4,48.2,56,29.95,6.2,NNW,8.1,-,N/A,,Partly Cloudy,330,2012-11-17 16:20:00
6:50 PM,62.6,48.2,59,29.95,6.2,NNW,6.9,-,N/A,,Partly Cloudy,340,2012-11-17 16:50:00
7:20 PM,60.8,48.2,63,29.95,6.2,NNW,5.8,-,N/A,,Partly Cloudy,330,2012-11-17 17:20:00
7:50 PM,64.4,48.2,56,29.95,6.2,NW,5.8,-,N/A,,Partly Cloudy,320,2012-11-17 17:50:00
10:50 PM,57.2,48.2,72,29.98,-9999.0,NNW,4.6,-,N/A,,Clear,330,2012-11-17 20:50:00